This is the latest recevied weather packets stored in our database for station/object N9BID. If no packets are shown the sender has not sent any weather packets the latest 10 day(s).
| Time | Temp. | Humidity | Pressure | Rain* | Wind** | Luminosity | Snow |
|---|---|---|---|---|---|---|---|
| 1777411915 | 15° C | 54% | 1005.1 hPa | 0 mm | - | 463 W/m² | - |
| 1777411614 | 15° C | 56% | 1004.8 hPa | 0 mm | - | 478 W/m² | - |
| 1777411310 | 14.44° C | 55% | 1004.9 hPa | 0 mm | - | 327 W/m² | - |
| 1777411009 | 14.44° C | 59% | 1004.8 hPa | 0 mm | - | 510 W/m² | - |
| 1777410703 | 14.44° C | 53% | 1004.9 hPa | 0 mm | - | 499 W/m² | - |
| 1777410399 | 14.44° C | 55% | 1004.8 hPa | 0 mm | - | 505 W/m² | - |
| 1777410097 | 14.44° C | 57% | 1004.7 hPa | 0 mm | - | 529 W/m² | - |
| 1777409792 | 14.44° C | 55% | 1005 hPa | 0 mm | - | 524 W/m² | - |
| 1777409488 | 13.89° C | 62% | 1004.9 hPa | 0 mm | - | 493 W/m² | - |
| 1777409184 | 14.44° C | 59% | 1004.8 hPa | 0 mm | - | 419 W/m² | - |
| 1777408881 | 13.89° C | 60% | 1004.9 hPa | 0 mm | - | 484 W/m² | - |
| 1777408576 | 13.89° C | 56% | 1004.9 hPa | 0 mm | - | 542 W/m² | - |
| 1777408272 | 13.89° C | 57% | 1004.7 hPa | 0 mm | - | 611 W/m² | - |
| 1777407966 | 14.44° C | 57% | 1004.7 hPa | 0 mm | - | 574 W/m² | - |
| 1777407664 | 13.89° C | 57% | 1004.7 hPa | 0 mm | - | 542 W/m² | - |
| 1777407364 | 14.44° C | 54% | 1004.6 hPa | 0 mm | - | 586 W/m² | - |
| 1777407058 | 13.89° C | 57% | 1004.9 hPa | 0 mm | - | 442 W/m² | - |
| 1777406754 | 13.89° C | 56% | 1004.8 hPa | 0 mm | - | 436 W/m² | - |
| 1777406450 | 13.89° C | 54% | 1004.6 hPa | 0 mm | - | 558 W/m² | - |
| 1777406149 | 13.89° C | 54% | 1004.7 hPa | 0 mm | - | 334 W/m² | - |
| 1777405845 | 13.89° C | 59% | 1004.8 hPa | 0 mm | - | 628 W/m² | - |
| 1777405542 | 13.89° C | 57% | 1004.7 hPa | 0 mm | - | 256 W/m² | - |
| 1777405239 | 13.89° C | 55% | 1004.9 hPa | 0 mm | - | 466 W/m² | - |
| 1777404937 | 13.89° C | 55% | 1004.8 hPa | 0 mm | - | 197 W/m² | - |
| 1777404634 | 13.33° C | 56% | 1004.9 hPa | 0 mm | - | 390 W/m² | - |
* Rain latest hour (hover to see other rain measurements)
** Current wind speed in m/s (hover to see current wind gust speed)